Weather History for Boise, ID

Change the Weather History Date:

Thursday, November 17, 2011

  Actual Average Record
Temperature  
Mean Temperature 47 °F 39 °F  
Max Temperature 53 °F 47 °F 67 °F (1908)
Min Temperature 40 °F 32 °F 7 °F (1880)
Degree Days  
Heating Degree Days 18 26  
Month to date heating degree days 427 377  
Since 1 July heating degree days 775 883  
Cooling Degree Days 0 0  
Month to date cooling degree days 0 0  
Year to date cooling degree days 1076 942  
Moisture  
Dew Point 37 °F    
Average Humidity 69    
Maximum Humidity 89    
Minimum Humidity 49    
Precipitation  
Precipitation 0.05 in 0.05 in 0.92 in (1898)
Month to date precipitation 0.25 0.72  
Year to date precipitation 10.05 9.55  
Snow  
Snow 0.00 in 0.10 in 3.70 in (1994)
Month to date snowfall 0.2 0.9  
Since 1 July snowfall 0.2 1.0  
Snow Depth 0.00 in    
Sea Level Pressure  
Sea Level Pressure 29.80 in    
Wind  
Wind Speed 10 mph (SE)    
Max Wind Speed 24 mph    
Max Gust Speed 28 mph    
Visibility 9 miles    
Events Rain    
T = Trace of Precipitation, MM = Missing Value Source: NWS Daily Summary

Daily Weather History Graph

Daily Weather History Graph

Search for Another Location

Airport:

Trip Planner

Search our weather history database for the weather conditions in past years. The results will help you decide how hot, cold, wet, or windy it might be!

Date:

Astronomy

Nov. 17, 2011 Rise Set
Actual Time 7:41 AM MST 5:18 PM MST
Civil Twilight 7:10 AM MST 5:49 PM MST
Nautical Twilight 6:35 AM MST 6:24 PM MST
Astronomical Twilight 6:01 AM MST 6:57 PM MST
Moon 11:47 PM MST (11/17) 12:49 PM MST (11/17)
Length of Visible Light 10h 39m
Length of Day
9h 37m
Waning Gibbous, 59% of the Moon is Illuminated
Nov 17
Waning Gibbous
Nov 18
Last Quarter
Nov 24
New
Dec 2
First Quarter
Dec 10
Full

Hourly Weather History & Observations

Time (MST) Temp. Windchill Dew Point Humidity Pressure Visibility Wind Dir Wind Speed Gust Speed Precip Events Conditions
12:53 AM 43.0 °F 36.8 °F 28.9 °F 58% 30.06 in 10.0 mi SSE 11.5 mph - N/A   Overcast
1:53 AM 43.0 °F 38.8 °F 28.0 °F 56% 30.03 in 10.0 mi SSE 6.9 mph - N/A   Overcast
2:53 AM 43.0 °F 35.7 °F 28.9 °F 58% 30.00 in 10.0 mi SE 15.0 mph - N/A   Overcast
3:53 AM 43.0 °F 36.0 °F 30.0 °F 60% 29.97 in 10.0 mi SE 13.8 mph - 0.00 in   Overcast
4:53 AM 45.0 °F 38.2 °F 30.0 °F 56% 29.94 in 10.0 mi SE 15.0 mph - 0.00 in   Overcast
5:53 AM 46.9 °F - 30.0 °F 52% 29.93 in 10.0 mi ESE 19.6 mph - N/A   Overcast
6:53 AM 46.9 °F - 30.9 °F 54% 29.91 in 10.0 mi ESE 17.3 mph 25.3 mph N/A   Overcast
7:53 AM 46.0 °F 39.3 °F 34.0 °F 63% 29.91 in 10.0 mi ESE 16.1 mph 25.3 mph 0.00 in Rain Light Rain
8:53 AM 46.9 °F - 34.0 °F 61% 29.90 in 10.0 mi ESE 18.4 mph 24.2 mph 0.00 in   Overcast
9:53 AM 50.0 °F - 33.8 °F 54% 29.87 in 10.0 mi ESE 17.3 mph - N/A   Overcast
10:53 AM 51.1 °F - 34.0 °F 52% 29.85 in 10.0 mi SE 19.6 mph 26.5 mph 0.00 in   Overcast
11:53 AM 50.0 °F - 37.0 °F 61% 29.83 in 7.0 mi ESE 10.4 mph - 0.00 in Rain Light Rain
12:53 PM 50.0 °F - 39.9 °F 68% 29.81 in 10.0 mi NNW 4.6 mph - 0.02 in   Overcast
1:51 PM 50.0 °F - 41.0 °F 71% 29.75 in 10.0 mi ESE 10.4 mph - 0.00 in Rain Light Rain
1:53 PM 50.0 °F - 41.0 °F 71% 29.75 in 10.0 mi ESE 8.1 mph - 0.00 in Rain Light Rain
2:53 PM 53.1 °F - 42.1 °F 66% 29.75 in 10.0 mi North 11.5 mph 16.1 mph 0.00 in   Scattered Clouds
3:53 PM 50.0 °F - 39.9 °F 68% 29.73 in 10.0 mi North 9.2 mph - 0.00 in   Overcast
4:53 PM 50.0 °F - 39.0 °F 66% 29.71 in 10.0 mi North 8.1 mph - N/A   Overcast
5:53 PM 48.0 °F - 39.9 °F 74% 29.72 in 10.0 mi NW 6.9 mph - 0.00 in   Mostly Cloudy
6:53 PM 46.0 °F - 41.0 °F 83% 29.70 in 10.0 mi Calm Calm - 0.05 in   Overcast
7:53 PM 45.0 °F - 41.0 °F 86% 29.70 in 10.0 mi Calm Calm - 0.00 in Rain Light Rain
8:53 PM 44.1 °F 42.5 °F 41.0 °F 89% 29.68 in 10.0 mi SSE 3.5 mph - 0.01 in   Mostly Cloudy
9:53 PM 43.0 °F 39.5 °F 39.0 °F 86% 29.68 in 10.0 mi South 5.8 mph - N/A   Overcast
10:09 PM 42.8 °F 40.1 °F 39.2 °F 87% 29.69 in 10.0 mi SW 4.6 mph - N/A   Overcast
10:17 PM 42.8 °F 40.1 °F 39.2 °F 87% 29.69 in 10.0 mi WSW 4.6 mph - N/A   Overcast
10:44 PM 42.8 °F 38.6 °F 41.0 °F 93% 29.69 in 2.5 mi WNW 6.9 mph - N/A   Overcast
10:53 PM 43.0 °F 39.5 °F 39.9 °F 89% 29.69 in 3.0 mi WNW 5.8 mph - N/A   Overcast
11:02 PM 42.8 °F 39.3 °F 39.2 °F 87% 29.69 in 2.5 mi West 5.8 mph - N/A   Overcast
11:23 PM 41.0 °F 39.0 °F 37.4 °F 87% 29.69 in 2.5 mi Variable 3.5 mph 16.1 mph N/A   Overcast
11:48 PM 39.2 °F 37.0 °F 37.4 °F 93% 29.70 in 2.5 mi West 3.5 mph - N/A   Mostly Cloudy
11:53 PM 39.9 °F 35.1 °F 37.0 °F 89% 29.70 in 8.0 mi West 6.9 mph - N/A   Mostly Cloudy